Time,TemperatureF,DewpointF,PressureIn,WindDirection,WindDirectionDegrees,WindSpeedMPH,WindSpeedGustMPH,Humidity,HourlyPrecipIn,Conditions,Clouds,dailyrainin,SoftwareType,DateUTC
2013-03-12 00:11:00,61.0,39.0,30.02,WSW,248,0.0,0.0,44,0.00,,,0.00,,2013-03-12 07:11:00,
2013-03-12 00:21:00,61.0,38.0,30.01,WSW,248,0.0,0.0,43,0.00,,,0.00,,2013-03-12 07:21:00,
2013-03-12 00:31:00,60.0,37.0,30.01,WSW,248,0.0,1.0,43,0.00,,,0.00,,2013-03-12 07:31:00,
2013-03-12 00:41:00,60.0,37.0,30.01,WSW,248,0.0,1.0,43,0.00,,,0.00,,2013-03-12 07:41:00,
2013-03-12 00:52:00,59.0,38.0,30.01,WSW,248,0.0,0.0,45,0.00,,,0.00,,2013-03-12 07:52:00,
2013-03-12 01:01:00,59.0,38.0,30.01,WSW,248,0.0,0.0,45,0.00,,,0.00,,2013-03-12 08:01:00,
2013-03-12 01:12:00,59.0,38.0,30.01,WSW,248,0.0,0.0,45,0.00,,,0.00,,2013-03-12 08:12:00,
2013-03-12 01:21:00,59.0,38.0,30.01,WSW,248,0.0,0.0,45,0.00,,,0.00,,2013-03-12 08:21:00,
2013-03-12 01:32:00,58.0,36.0,30.01,WSW,248,0.0,1.0,44,0.00,,,0.00,,2013-03-12 08:32:00,
2013-03-12 01:41:00,58.0,36.0,30.01,WSW,248,0.0,1.0,44,0.00,,,0.00,,2013-03-12 08:41:00,
2013-03-12 01:52:00,58.0,38.0,30.01,WSW,248,0.0,0.0,47,0.00,,,0.00,,2013-03-12 08:52:00,
2013-03-12 02:02:00,58.0,37.0,30.01,WSW,248,0.0,0.0,46,0.00,,,0.00,,2013-03-12 09:02:00,
2013-03-12 02:11:00,58.0,37.0,30.01,WSW,248,0.0,0.0,46,0.00,,,0.00,,2013-03-12 09:11:00,
2013-03-12 02:22:00,57.0,37.0,30.01,WSW,248,0.0,0.0,47,0.00,,,0.00,,2013-03-12 09:22:00,
2013-03-12 02:31:00,57.0,38.0,30.01,WSW,248,0.0,0.0,48,0.00,,,0.00,,2013-03-12 09:31:00,
2013-03-12 02:41:00,57.0,38.0,30.01,WSW,248,0.0,0.0,48,0.00,,,0.00,,2013-03-12 09:41:00,
2013-03-12 02:52:00,57.0,38.0,29.99,WSW,248,0.0,0.0,48,0.00,,,0.00,,2013-03-12 09:52:00,
2013-03-12 03:01:00,57.0,38.0,29.99,WSW,248,0.0,0.0,48,0.00,,,0.00,,2013-03-12 10:01:00,
2013-03-12 03:11:00,57.0,38.0,29.99,WSW,248,0.0,0.0,48,0.00,,,0.00,,2013-03-12 10:11:00,
2013-03-12 03:22:00,56.0,37.0,29.99,WSW,248,0.0,0.0,48,0.00,,,0.00,,2013-03-12 10:22:00,
2013-03-12 03:31:00,56.0,36.0,29.98,WSW,248,0.0,0.0,47,0.00,,,0.00,,2013-03-12 10:31:00,
2013-03-12 03:41:00,56.0,36.0,29.98,WSW,248,0.0,0.0,47,0.00,,,0.00,,2013-03-12 10:41:00,
2013-03-12 03:52:00,56.0,36.0,29.98,WSW,248,0.0,1.0,46,0.00,,,0.00,,2013-03-12 10:52:00,
2013-03-12 04:01:00,56.0,36.0,29.98,WSW,248,0.0,0.0,47,0.00,,,0.00,,2013-03-12 11:01:00,
2013-03-12 04:22:00,55.0,36.0,29.98,WSW,248,0.0,1.0,48,0.00,,,0.00,,2013-03-12 11:22:00,
2013-03-12 04:31:00,55.0,36.0,29.98,WSW,248,0.0,0.0,48,0.00,,,0.00,,2013-03-12 11:31:00,
2013-03-12 04:42:00,55.0,36.0,29.98,WSW,248,0.0,0.0,48,0.00,,,0.00,,2013-03-12 11:42:00,
2013-03-12 04:52:00,55.0,36.0,29.98,WSW,248,1.0,2.0,48,0.00,,,0.00,,2013-03-12 11:52:00,
2013-03-12 05:01:00,55.0,36.0,29.98,WSW,248,1.0,1.0,48,0.00,,,0.00,,2013-03-12 12:01:00,
2013-03-12 05:11:00,55.0,36.0,29.98,WSW,248,1.0,1.0,48,0.00,,,0.00,,2013-03-12 12:11:00,
2013-03-12 05:21:00,54.0,36.0,29.99,WSW,248,1.0,3.0,50,0.00,,,0.00,,2013-03-12 12:21:00,
2013-03-12 05:31:00,54.0,35.0,29.99,WSW,248,1.0,3.0,48,0.00,,,0.00,,2013-03-12 12:31:00,
2013-03-12 05:41:00,54.0,35.0,29.99,WSW,248,1.0,3.0,48,0.00,,,0.00,,2013-03-12 12:41:00,
2013-03-12 05:52:00,54.0,34.0,29.99,WSW,248,2.0,3.0,46,0.00,,,0.00,,2013-03-12 12:52:00,
2013-03-12 06:01:00,54.0,33.0,29.99,WSW,248,2.0,2.0,45,0.00,,,0.00,,2013-03-12 13:01:00,
2013-03-12 06:11:00,54.0,33.0,29.99,WSW,248,2.0,2.0,45,0.00,,,0.00,,2013-03-12 13:11:00,
2013-03-12 06:21:00,54.0,34.0,30.00,WSW,248,1.0,2.0,46,0.00,,,0.00,,2013-03-12 13:21:00,
2013-03-12 06:31:00,54.0,34.0,30.01,WSW,248,1.0,2.0,46,0.00,,,0.00,,2013-03-12 13:31:00,
2013-03-12 06:42:00,54.0,34.0,30.01,WSW,248,1.0,2.0,46,0.00,,,0.00,,2013-03-12 13:42:00,
2013-03-12 06:52:00,54.0,35.0,30.01,WSW,248,0.0,0.0,49,0.00,,,0.00,,2013-03-12 13:52:00,
2013-03-12 07:01:00,53.0,35.0,30.01,WSW,248,0.0,0.0,51,0.00,,,0.00,,2013-03-12 14:01:00,
2013-03-12 07:11:00,53.0,35.0,30.01,WSW,248,0.0,0.0,51,0.00,,,0.00,,2013-03-12 14:11:00,
2013-03-12 07:21:00,52.0,35.0,30.01,WSW,248,0.0,0.0,53,0.00,,,0.00,,2013-03-12 14:21:00,
2013-03-12 07:32:00,51.0,36.0,30.01,WSW,248,0.0,0.0,56,0.00,,,0.00,,2013-03-12 14:32:00,
2013-03-12 07:41:00,51.0,36.0,30.01,WSW,248,0.0,0.0,56,0.00,,,0.00,,2013-03-12 14:41:00,
2013-03-12 07:53:00,53.0,36.0,30.03,West,270,2.0,3.0,52,0.00,,,0.00,,2013-03-12 14:53:00,
2013-03-12 08:01:00,57.0,30.0,30.03,NW,315,6.0,8.0,35,0.00,,,0.00,,2013-03-12 15:01:00,
2013-03-12 08:11:00,57.0,30.0,30.03,NW,315,6.0,8.0,35,0.00,,,0.00,,2013-03-12 15:11:00,
2013-03-12 08:22:00,61.0,30.0,30.04,NNW,338,3.0,5.0,31,0.00,,,0.00,,2013-03-12 15:22:00,
2013-03-12 08:31:00,63.0,29.0,30.05,NNW,338,3.0,3.0,27,0.00,,,0.00,,2013-03-12 15:31:00,
2013-03-12 08:53:00,64.0,31.0,30.05,NNW,338,2.0,3.0,29,0.00,,,0.00,,2013-03-12 15:53:00,
2013-03-12 09:01:00,65.0,30.0,30.06,North,0,1.0,2.0,27,0.00,,,0.00,,2013-03-12 16:01:00,
2013-03-12 09:11:00,65.0,30.0,30.06,North,0,1.0,2.0,27,0.00,,,0.00,,2013-03-12 16:11:00,
2013-03-12 09:22:00,67.0,32.0,30.06,North,0,3.0,6.0,27,0.00,,,0.00,,2013-03-12 16:22:00,
2013-03-12 09:32:00,69.0,34.0,30.07,North,0,3.0,3.0,27,0.00,,,0.00,,2013-03-12 16:32:00,
2013-03-12 09:42:00,69.0,34.0,30.07,North,0,3.0,3.0,27,0.00,,,0.00,,2013-03-12 16:42:00,
2013-03-12 09:52:00,70.0,34.0,30.06,North,0,3.0,5.0,27,0.00,,,0.00,,2013-03-12 16:52:00,
2013-03-12 10:02:00,71.0,34.0,30.07,North,0,3.0,5.0,26,0.00,,,0.00,,2013-03-12 17:02:00,
2013-03-12 10:11:00,71.0,34.0,30.07,North,0,3.0,5.0,26,0.00,,,0.00,,2013-03-12 17:11:00,
2013-03-12 10:21:00,72.0,33.0,30.07,North,0,2.0,3.0,24,0.00,,,0.00,,2013-03-12 17:21:00,
2013-03-12 10:32:00,72.0,34.0,30.07,North,0,2.0,3.0,25,0.00,,,0.00,,2013-03-12 17:32:00,
2013-03-12 10:42:00,72.0,34.0,30.07,North,0,2.0,3.0,25,0.00,,,0.00,,2013-03-12 17:42:00,
2013-03-12 10:53:00,73.0,35.0,30.07,NNE,23,3.0,5.0,25,0.00,,,0.00,,2013-03-12 17:53:00,
2013-03-12 11:02:00,74.0,37.0,30.08,NNE,23,5.0,6.0,26,0.00,,,0.00,,2013-03-12 18:02:00,
2013-03-12 11:12:00,74.0,35.0,30.07,NNE,23,3.0,6.0,24,0.00,,,0.00,,2013-03-12 18:12:00,
2013-03-12 11:22:00,74.0,35.0,30.07,NNE,23,3.0,6.0,24,0.00,,,0.00,,2013-03-12 18:22:00,
2013-03-12 11:32:00,75.0,36.0,30.07,NNE,23,3.0,6.0,24,0.00,,,0.00,,2013-03-12 18:32:00,
2013-03-12 11:42:00,75.0,36.0,30.07,NNE,23,3.0,6.0,24,0.00,,,0.00,,2013-03-12 18:42:00,
2013-03-12 11:52:00,76.0,36.0,30.06,NNE,23,3.0,6.0,23,0.00,,,0.00,,2013-03-12 18:52:00,
2013-03-12 12:03:00,77.0,35.0,30.06,NE,45,5.0,7.0,22,0.00,,,0.00,,2013-03-12 19:03:00,
2013-03-12 12:12:00,77.0,35.0,30.06,NE,45,5.0,7.0,22,0.00,,,0.00,,2013-03-12 19:12:00,
2013-03-12 12:22:00,78.0,35.0,30.05,NNE,23,3.0,6.0,21,0.00,,,0.00,,2013-03-12 19:22:00,
2013-03-12 12:32:00,79.0,36.0,30.05,North,0,2.0,5.0,21,0.00,,,0.00,,2013-03-12 19:32:00,
2013-03-12 12:43:00,79.0,36.0,30.05,North,0,2.0,5.0,21,0.00,,,0.00,,2013-03-12 19:43:00,
2013-03-12 12:53:00,80.0,35.0,30.04,NNE,23,6.0,9.0,20,0.00,,,0.00,,2013-03-12 19:53:00,
2013-03-12 13:01:00,80.0,35.0,30.04,NNE,23,3.0,6.0,20,0.00,,,0.00,,2013-03-12 20:01:00,
2013-03-12 13:22:00,81.0,33.0,30.03,NNE,23,3.0,3.0,18,0.00,,,0.00,,2013-03-12 20:22:00,
2013-03-12 13:32:00,81.0,32.0,30.02,NE,45,5.0,7.0,17,0.00,,,0.00,,2013-03-12 20:32:00,
2013-03-12 13:53:00,82.0,34.0,30.01,NE,45,1.0,3.0,18,0.00,,,0.00,,2013-03-12 20:53:00,
2013-03-12 14:02:00,82.0,36.0,30.01,NE,45,3.0,5.0,19,0.00,,,0.00,,2013-03-12 21:02:00,
2013-03-12 14:21:00,83.0,35.0,30.01,NE,45,5.0,6.0,18,0.00,,,0.00,,2013-03-12 21:21:00,
2013-03-12 14:31:00,83.0,34.0,30.00,NE,45,0.0,2.0,17,0.00,,,0.00,,2013-03-12 21:31:00,
2013-03-12 14:42:00,83.0,34.0,30.00,NE,45,0.0,2.0,17,0.00,,,0.00,,2013-03-12 21:42:00,
2013-03-12 14:52:00,83.0,34.0,29.99,NE,45,3.0,5.0,17,0.00,,,0.00,,2013-03-12 21:52:00,
2013-03-12 15:01:00,84.0,37.0,29.98,NE,45,1.0,3.0,19,0.00,,,0.00,,2013-03-12 22:01:00,
2013-03-12 15:21:00,86.0,36.0,29.98,North,0,1.0,2.0,17,0.00,,,0.00,,2013-03-12 22:21:00,
2013-03-12 15:32:00,87.0,37.0,29.98,NW,315,5.0,7.0,17,0.00,,,0.00,,2013-03-12 22:32:00,
2013-03-12 15:53:00,85.0,35.0,29.97,North,0,0.0,1.0,17,0.00,,,0.00,,2013-03-12 22:53:00,
2013-03-12 16:02:00,85.0,35.0,29.97,North,0,2.0,3.0,17,0.00,,,0.00,,2013-03-12 23:02:00,
2013-03-12 16:22:00,86.0,36.0,29.96,NW,315,1.0,3.0,17,0.00,,,0.00,,2013-03-12 23:22:00,
2013-03-12 16:33:00,86.0,36.0,29.96,NW,315,2.0,3.0,17,0.00,,,0.00,,2013-03-12 23:33:00,
2013-03-12 16:52:00,86.0,36.0,29.96,NW,315,2.0,5.0,17,0.00,,,0.00,,2013-03-12 23:52:00,
2013-03-12 17:01:00,85.0,35.0,29.96,NW,315,3.0,5.0,17,0.00,,,0.00,,2013-03-13 00:01:00,
2013-03-12 17:22:00,85.0,34.0,29.96,NNW,338,1.0,2.0,16,0.00,,,0.00,,2013-03-13 00:22:00,
2013-03-12 17:32:00,85.0,34.0,29.96,North,0,1.0,3.0,16,0.00,,,0.00,,2013-03-13 00:32:00,
2013-03-12 17:53:00,85.0,35.0,29.95,NW,315,2.0,3.0,17,0.00,,,0.00,,2013-03-13 00:53:00,
2013-03-12 18:01:00,84.0,34.0,29.96,NW,315,2.0,3.0,17,0.00,,,0.00,,2013-03-13 01:01:00,
2013-03-12 18:21:00,84.0,34.0,29.97,NW,315,2.0,3.0,17,0.00,,,0.00,,2013-03-13 01:21:00,
2013-03-12 18:31:00,83.0,35.0,29.97,NW,315,1.0,2.0,18,0.00,,,0.00,,2013-03-13 01:31:00,
2013-03-12 18:51:00,82.0,36.0,29.97,NW,315,1.0,1.0,19,0.00,,,0.00,,2013-03-13 01:51:00,
2013-03-12 19:21:00,79.0,36.0,29.98,NW,315,0.0,0.0,21,0.00,,,0.00,,2013-03-13 02:21:00,
2013-03-12 19:31:00,77.0,36.0,29.98,NW,315,0.0,0.0,23,0.00,,,0.00,,2013-03-13 02:31:00,
2013-03-12 19:42:00,77.0,36.0,29.98,NW,315,0.0,0.0,23,0.00,,,0.00,,2013-03-13 02:42:00,
2013-03-12 19:52:00,76.0,37.0,29.98,NW,315,0.0,0.0,24,0.00,,,0.00,,2013-03-13 02:52:00,
2013-03-12 20:01:00,75.0,39.0,29.99,NW,315,0.0,0.0,27,0.00,,,0.00,,2013-03-13 03:01:00,
2013-03-12 20:31:00,73.0,37.0,29.99,NW,315,0.0,0.0,27,0.00,,,0.00,,2013-03-13 03:31:00,
2013-03-12 20:41:00,73.0,37.0,29.99,NW,315,0.0,0.0,27,0.00,,,0.00,,2013-03-13 03:41:00,
2013-03-12 20:52:00,72.0,37.0,29.99,NW,315,0.0,0.0,28,0.00,,,0.00,,2013-03-13 03:52:00,
2013-03-12 21:01:00,71.0,37.0,30.00,NW,315,0.0,0.0,29,0.00,,,0.00,,2013-03-13 04:01:00,
2013-03-12 21:12:00,71.0,37.0,30.00,NW,315,0.0,0.0,29,0.00,,,0.00,,2013-03-13 04:12:00,
2013-03-12 21:22:00,71.0,38.0,30.00,NW,315,0.0,0.0,30,0.00,,,0.00,,2013-03-13 04:22:00,
2013-03-12 21:31:00,70.0,38.0,30.01,NW,315,0.0,0.0,31,0.00,,,0.00,,2013-03-13 04:31:00,
2013-03-12 21:42:00,70.0,38.0,30.01,NW,315,0.0,0.0,31,0.00,,,0.00,,2013-03-13 04:42:00,
2013-03-12 21:53:00,69.0,39.0,30.01,NW,315,0.0,0.0,33,0.00,,,0.00,,2013-03-13 04:53:00,
2013-03-12 22:01:00,69.0,39.0,30.01,NW,315,0.0,1.0,33,0.00,,,0.00,,2013-03-13 05:01:00,
2013-03-12 22:11:00,69.0,39.0,30.01,NW,315,0.0,1.0,33,0.00,,,0.00,,2013-03-13 05:11:00,
2013-03-12 22:22:00,68.0,39.0,30.01,NW,315,0.0,0.0,34,0.00,,,0.00,,2013-03-13 05:22:00,
2013-03-12 22:31:00,67.0,38.0,30.02,NW,315,0.0,0.0,35,0.00,,,0.00,,2013-03-13 05:31:00,
2013-03-12 22:42:00,67.0,38.0,30.02,NW,315,0.0,0.0,35,0.00,,,0.00,,2013-03-13 05:42:00,
2013-03-12 22:52:00,67.0,39.0,30.02,NW,315,1.0,2.0,36,0.00,,,0.00,,2013-03-13 05:52:00,
2013-03-12 23:01:00,66.0,39.0,30.02,NW,315,0.0,0.0,37,0.00,,,0.00,,2013-03-13 06:01:00,
2013-03-12 23:11:00,66.0,39.0,30.02,NW,315,0.0,0.0,37,0.00,,,0.00,,2013-03-13 06:11:00,
2013-03-12 23:21:00,66.0,40.0,30.03,NW,315,1.0,2.0,38,0.00,,,0.00,,2013-03-13 06:21:00,
2013-03-12 23:31:00,65.0,39.0,30.03,NW,315,0.0,0.0,38,0.00,,,0.00,,2013-03-13 06:31:00,
2013-03-12 23:41:00,65.0,39.0,30.03,NW,315,0.0,0.0,38,0.00,,,0.00,,2013-03-13 06:41:00,
2013-03-12 23:52:00,65.0,39.0,30.02,NW,315,0.0,0.0,38,0.00,,,0.00,,2013-03-13 06:52:00,